TimeMST,TemperatureF,Dew PointF,Humidity,Sea Level PressureIn,VisibilityMPH,Wind Direction,Wind SpeedMPH,Gust SpeedMPH,PrecipitationIn,Events,Conditions,WindDirDegrees,DateUTC
12:56 AM,21.2,19.4,93,30.18,-9999.0,Calm,Calm,-,N/A,,Unknown,0,2013-03-03 07:56:00
1:16 AM,21.2,19.4,93,30.17,-9999.0,Calm,Calm,-,N/A,,Unknown,0,2013-03-03 08:16:00
1:36 AM,21.2,17.6,86,30.16,-9999.0,Calm,Calm,-,N/A,,Unknown,0,2013-03-03 08:36:00
1:56 AM,21.2,17.6,86,30.16,-9999.0,Calm,Calm,-,N/A,,Unknown,0,2013-03-03 08:56:00
2:16 AM,19.4,17.6,93,30.14,-9999.0,Calm,Calm,-,N/A,,Unknown,0,2013-03-03 09:16:00
2:36 AM,19.4,17.6,93,30.14,-9999.0,Calm,Calm,-,N/A,,Unknown,0,2013-03-03 09:36:00
2:55 AM,17.6,15.8,93,30.12,-9999.0,Calm,Calm,-,N/A,,Unknown,0,2013-03-03 09:55:00
3:16 AM,17.6,15.8,93,30.11,-9999.0,Calm,Calm,-,N/A,,Unknown,0,2013-03-03 10:16:00
3:36 AM,17.6,15.8,93,30.11,-9999.0,Calm,Calm,-,N/A,,Unknown,0,2013-03-03 10:36:00
3:55 AM,17.6,14.0,86,30.10,-9999.0,Calm,Calm,-,N/A,,Unknown,0,2013-03-03 10:55:00
4:16 AM,17.6,15.8,93,30.08,-9999.0,Calm,Calm,-,N/A,,Unknown,0,2013-03-03 11:16:00
4:36 AM,17.6,14.0,86,30.08,-9999.0,Calm,Calm,-,N/A,,Unknown,0,2013-03-03 11:36:00
5:16 AM,15.8,14.0,93,30.06,-9999.0,Calm,Calm,-,N/A,,Unknown,0,2013-03-03 12:16:00
5:36 AM,14.0,12.2,93,30.06,-9999.0,Calm,Calm,-,N/A,,Unknown,0,2013-03-03 12:36:00
5:55 AM,14.0,12.2,93,30.06,-9999.0,Calm,Calm,-,N/A,,Unknown,0,2013-03-03 12:55:00
6:16 AM,14.0,12.2,93,30.06,-9999.0,Calm,Calm,-,N/A,,Unknown,0,2013-03-03 13:16:00
6:32 AM,14.0,12.2,93,30.06,-9999.0,Calm,Calm,-,N/A,,Unknown,0,2013-03-03 13:32:00
6:56 AM,14.0,12.2,93,30.05,-9999.0,Calm,Calm,-,N/A,,Unknown,0,2013-03-03 13:56:00
7:16 AM,14.0,12.2,93,30.04,-9999.0,Calm,Calm,-,N/A,,Unknown,0,2013-03-03 14:16:00
7:36 AM,17.6,12.2,79,30.04,-9999.0,Calm,Calm,-,N/A,,Unknown,0,2013-03-03 14:36:00
7:56 AM,17.6,14.0,86,30.04,-9999.0,Calm,Calm,-,N/A,,Mostly Cloudy,0,2013-03-03 14:56:00
8:16 AM,19.4,14.0,80,30.04,-9999.0,Calm,Calm,-,N/A,,Mostly Cloudy,0,2013-03-03 15:16:00
8:36 AM,19.4,17.6,93,30.03,-9999.0,WSW,3.5,-,N/A,,Unknown,250,2013-03-03 15:36:00
8:56 AM,21.2,17.6,86,30.02,-9999.0,Calm,Calm,-,N/A,,Unknown,0,2013-03-03 15:56:00
9:16 AM,21.2,17.6,86,30.01,-9999.0,Calm,Calm,-,N/A,,Mostly Cloudy,0,2013-03-03 16:16:00
9:36 AM,23.0,17.6,80,30.00,-9999.0,Calm,Calm,-,N/A,,Mostly Cloudy,0,2013-03-03 16:36:00
9:56 AM,24.8,19.4,80,30.00,-9999.0,Calm,Calm,-,N/A,,Mostly Cloudy,0,2013-03-03 16:56:00
10:16 AM,28.4,19.4,69,30.00,-9999.0,Calm,Calm,-,N/A,,Mostly Cloudy,0,2013-03-03 17:16:00
10:32 AM,30.2,21.2,69,29.99,-9999.0,Calm,Calm,-,N/A,,Mostly Cloudy,0,2013-03-03 17:32:00
10:56 AM,32.0,23.0,69,29.97,-9999.0,Calm,Calm,-,N/A,,Scattered Clouds,0,2013-03-03 17:56:00
11:16 AM,33.8,23.0,65,29.96,-9999.0,ESE,4.6,-,N/A,,Clear,110,2013-03-03 18:16:00
11:36 AM,35.6,23.0,60,29.94,-9999.0,SE,3.5,-,N/A,,Clear,130,2013-03-03 18:36:00
11:56 AM,42.8,21.2,42,29.92,-9999.0,Calm,Calm,-,N/A,,Clear,0,2013-03-03 18:56:00
12:16 PM,50.0,21.2,32,29.91,-9999.0,WSW,18.4,26.5,N/A,,Clear,250,2013-03-03 19:16:00
12:35 PM,50.0,21.2,32,29.90,-9999.0,WSW,17.3,27.6,N/A,,Mostly Cloudy,250,2013-03-03 19:35:00
12:56 PM,50.0,19.4,30,29.88,-9999.0,West,19.6,33.4,N/A,,Overcast,260,2013-03-03 19:56:00
1:16 PM,50.0,21.2,32,29.87,-9999.0,WSW,13.8,25.3,N/A,,Mostly Cloudy,240,2013-03-03 20:16:00
1:32 PM,50.0,21.2,32,29.86,-9999.0,SW,11.5,-,N/A,,Scattered Clouds,230,2013-03-03 20:32:00
1:56 PM,50.0,23.0,35,29.86,-9999.0,WSW,24.2,31.1,N/A,,Clear,240,2013-03-03 20:56:00
2:16 PM,46.4,21.2,37,29.85,-9999.0,WSW,13.8,27.6,N/A,,Scattered Clouds,250,2013-03-03 21:16:00
2:36 PM,44.6,21.2,39,29.85,-9999.0,WSW,18.4,26.5,N/A,,Scattered Clouds,250,2013-03-03 21:36:00
2:56 PM,44.6,21.2,39,29.84,-9999.0,SW,15.0,27.6,N/A,,Clear,230,2013-03-03 21:56:00
3:14 PM,42.8,23.0,46,29.84,-9999.0,WSW,20.7,29.9,N/A,,Clear,240,2013-03-03 22:14:00
3:36 PM,42.8,23.0,46,29.85,-9999.0,WSW,16.1,29.9,N/A,,Scattered Clouds,250,2013-03-03 22:36:00
3:56 PM,41.0,23.0,49,29.85,-9999.0,WSW,18.4,26.5,N/A,,Mostly Cloudy,240,2013-03-03 22:56:00
4:16 PM,41.0,23.0,49,29.85,-9999.0,WSW,19.6,26.5,N/A,,Scattered Clouds,240,2013-03-03 23:16:00
4:36 PM,41.0,23.0,49,29.85,-9999.0,WSW,17.3,25.3,N/A,,Scattered Clouds,240,2013-03-03 23:36:00
4:49 PM,41.0,23.0,49,29.85,-9999.0,WSW,13.8,20.7,N/A,,Mostly Cloudy,240,2013-03-03 23:49:00
5:36 PM,37.4,24.8,60,29.86,-9999.0,WSW,11.5,21.9,N/A,,Overcast,250,2013-03-04 00:36:00
5:56 PM,37.4,26.6,65,29.86,-9999.0,West,15.0,23.0,N/A,,Overcast,260,2013-03-04 00:56:00
6:15 PM,37.4,28.4,70,29.87,-9999.0,NW,6.9,20.7,N/A,,Overcast,320,2013-03-04 01:15:00
6:36 PM,35.6,30.2,81,29.88,-9999.0,NNW,9.2,-,N/A,Snow,Light Snow,340,2013-03-04 01:36:00
6:56 PM,33.8,30.2,87,29.88,-9999.0,West,4.6,-,N/A,,Overcast,280,2013-03-04 01:56:00
7:13 PM,35.6,30.2,81,29.88,-9999.0,Calm,Calm,-,N/A,Snow,Light Snow,0,2013-03-04 02:13:00
7:33 PM,35.6,30.2,81,29.87,-9999.0,NNE,4.6,-,N/A,Snow,Light Snow,20,2013-03-04 02:33:00
7:56 PM,35.6,30.2,81,29.87,-9999.0,Calm,Calm,-,N/A,Rain,Light Rain,0,2013-03-04 02:56:00
8:16 PM,35.6,30.2,81,29.86,-9999.0,Calm,Calm,-,N/A,,Overcast,0,2013-03-04 03:16:00
8:36 PM,35.6,30.2,81,29.86,-9999.0,North,4.6,-,N/A,,Overcast,360,2013-03-04 03:36:00
8:55 PM,33.8,30.2,87,29.86,-9999.0,NNW,5.8,-,N/A,,Unknown,340,2013-03-04 03:55:00
9:16 PM,33.8,30.2,87,29.86,-9999.0,Calm,Calm,-,N/A,,Unknown,0,2013-03-04 04:16:00
9:36 PM,35.6,30.2,81,29.85,-9999.0,Calm,Calm,-,N/A,,Overcast,0,2013-03-04 04:36:00
9:56 PM,35.6,30.2,81,29.85,-9999.0,Calm,Calm,-,N/A,,Overcast,0,2013-03-04 04:56:00
10:15 PM,35.6,30.2,81,29.84,-9999.0,Calm,Calm,-,N/A,,Overcast,0,2013-03-04 05:15:00
10:36 PM,35.6,30.2,81,29.84,-9999.0,NW,4.6,-,N/A,,Overcast,320,2013-03-04 05:36:00
10:56 PM,35.6,28.4,75,29.82,-9999.0,NNE,3.5,-,N/A,,Overcast,30,2013-03-04 05:56:00
11:14 PM,35.6,28.4,75,29.82,-9999.0,North,5.8,-,N/A,,Mostly Cloudy,360,2013-03-04 06:14:00
11:36 PM,35.6,28.4,75,29.82,-9999.0,SSW,4.6,-,N/A,,Overcast,210,2013-03-04 06:36:00
11:53 PM,35.6,28.4,75,29.81,-9999.0,North,4.6,-,N/A,,Overcast,360,2013-03-04 06:53:00